owner,sensor,date,latitude,longitude,vertical_datum,sea_water_practical_salinity,qcFlag 
TCOON,ioos:station:TCOON:042:1,2017-11-01T00:30:00Z,27.8888,-97.5696,0.0,12.2,1111122 
TCOON,ioos:station:TCOON:042:1,2017-11-01T01:30:00Z,27.8888,-97.5696,0.0,10.9,1111122 
TCOON,ioos:station:TCOON:042:1,2017-11-01T02:30:00Z,27.8888,-97.5696,0.0,11.2,1111122 
TCOON,ioos:station:TCOON:042:1,2017-11-01T03:30:00Z,27.8888,-97.5696,0.0,11.4,1111122 
TCOON,ioos:station:TCOON:042:1,2017-11-01T04:30:00Z,27.8888,-97.5696,0.0,11.6,1111122 
TCOON,ioos:station:TCOON:042:1,2017-11-01T05:30:00Z,27.8888,-97.5696,0.0,11.5,1111122 
TCOON,ioos:station:TCOON:042:1,2017-11-01T06:30:00Z,27.8888,-97.5696,0.0,11.4,1111122 
TCOON,ioos:station:TCOON:042:1,2017-11-01T07:30:00Z,27.8888,-97.5696,0.0,11.2,1111122 
TCOON,ioos:station:TCOON:042:1,2017-11-01T08:30:00Z,27.8888,-97.5696,0.0,11.2,1111122 
TCOON,ioos:station:TCOON:042:1,2017-11-01T09:30:00Z,27.8888,-97.5696,0.0,11.2,1111122 
TCOON,ioos:station:TCOON:042:1,2017-11-01T10:30:00Z,27.8888,-97.5696,0.0,5.8,1111122 
TCOON,ioos:station:TCOON:042:1,2017-11-01T11:30:00Z,27.8888,-97.5696,0.0,10.6,1111122 
TCOON,ioos:station:TCOON:042:1,2017-11-01T12:30:00Z,27.8888,-97.5696,0.0,10.1,1111122 
TCOON,ioos:station:TCOON:042:1,2017-11-01T13:30:00Z,27.8888,-97.5696,0.0,10.4,1111122 
TCOON,ioos:station:TCOON:042:1,2017-11-01T14:30:00Z,27.8888,-97.5696,0.0,10.0,1111122 
TCOON,ioos:station:TCOON:042:1,2017-11-01T15:30:00Z,27.8888,-97.5696,0.0,10.0,1111122 
TCOON,ioos:station:TCOON:042:1,2017-11-01T16:30:00Z,27.8888,-97.5696,0.0,10.3,1111122 
TCOON,ioos:station:TCOON:042:1,2017-11-01T17:30:00Z,27.8888,-97.5696,0.0,10.3,1111122 
TCOON,ioos:station:TCOON:042:1,2017-11-01T18:30:00Z,27.8888,-97.5696,0.0,7.9,1111122 
TCOON,ioos:station:TCOON:042:1,2017-11-01T19:30:00Z,27.8888,-97.5696,0.0,7.9,1111122 
TCOON,ioos:station:TCOON:042:1,2017-11-01T20:30:00Z,27.8888,-97.5696,0.0,9.6,1111122 
TCOON,ioos:station:TCOON:042:1,2017-11-01T21:30:00Z,27.8888,-97.5696,0.0,9.8,1111122 
TCOON,ioos:station:TCOON:042:1,2017-11-01T22:30:00Z,27.8888,-97.5696,0.0,9.7,1111122 
TCOON,ioos:station:TCOON:042:1,2017-11-01T23:30:00Z,27.8888,-97.5696,0.0,7.1,1111122 
TCOON,ioos:station:TCOON:042:1,2017-11-02T00:30:00Z,27.8888,-97.5696,0.0,8.1,1111122 
TCOON,ioos:station:TCOON:042:1,2017-11-02T01:30:00Z,27.8888,-97.5696,0.0,10.5,1111122 
TCOON,ioos:station:TCOON:042:1,2017-11-02T02:30:00Z,27.8888,-97.5696,0.0,9.4,1111122 
TCOON,ioos:station:TCOON:042:1,2017-11-02T03:30:00Z,27.8888,-97.5696,0.0,9.4,1111122 
TCOON,ioos:station:TCOON:042:1,2017-11-02T04:30:00Z,27.8888,-97.5696,0.0,7.1,1111122 
TCOON,ioos:station:TCOON:042:1,2017-11-02T05:30:00Z,27.8888,-97.5696,0.0,9.9,1111122 
TCOON,ioos:station:TCOON:042:1,2017-11-02T06:30:00Z,27.8888,-97.5696,0.0,10.6,1111122 
TCOON,ioos:station:TCOON:042:1,2017-11-02T07:30:00Z,27.8888,-97.5696,0.0,12.9,1111122 
TCOON,ioos:station:TCOON:042:1,2017-11-02T08:30:00Z,27.8888,-97.5696,0.0,13.2,1111122 
TCOON,ioos:station:TCOON:042:1,2017-11-02T09:30:00Z,27.8888,-97.5696,0.0,7.7,1111122 
TCOON,ioos:station:TCOON:042:1,2017-11-02T10:30:00Z,27.8888,-97.5696,0.0,11.1,1111122 
TCOON,ioos:station:TCOON:042:1,2017-11-02T11:30:00Z,27.8888,-97.5696,0.0,10.3,1111122 
TCOON,ioos:station:TCOON:042:1,2017-11-02T12:30:00Z,27.8888,-97.5696,0.0,11.6,1111122 
TCOON,ioos:station:TCOON:042:1,2017-11-02T13:30:00Z,27.8888,-97.5696,0.0,11.4,1111122 
TCOON,ioos:station:TCOON:042:1,2017-11-02T14:30:00Z,27.8888,-97.5696,0.0,10.8,1111122 
TCOON,ioos:station:TCOON:042:1,2017-11-02T15:30:00Z,27.8888,-97.5696,0.0,10.7,1111122 
TCOON,ioos:station:TCOON:042:1,2017-11-02T16:30:00Z,27.8888,-97.5696,0.0,4.0,1111122 
TCOON,ioos:station:TCOON:042:1,2017-11-02T17:30:00Z,27.8888,-97.5696,0.0,11.1,1111122 
TCOON,ioos:station:TCOON:042:1,2017-11-02T18:30:00Z,27.8888,-97.5696,0.0,11.0,1111122 
TCOON,ioos:station:TCOON:042:1,2017-11-02T19:30:00Z,27.8888,-97.5696,0.0,10.9,1111122 
TCOON,ioos:station:TCOON:042:1,2017-11-02T20:30:00Z,27.8888,-97.5696,0.0,10.8,1111122 
TCOON,ioos:station:TCOON:042:1,2017-11-02T21:30:00Z,27.8888,-97.5696,0.0,12.7,1111122 
TCOON,ioos:station:TCOON:042:1,2017-11-02T22:30:00Z,27.8888,-97.5696,0.0,12.8,1111122 
TCOON,ioos:station:TCOON:042:1,2017-11-02T23:30:00Z,27.8888,-97.5696,0.0,12.8,1111122 
TCOON,ioos:station:TCOON:042:1,2017-11-03T00:30:00Z,27.8888,-97.5696,0.0,8.4,1111122 
TCOON,ioos:station:TCOON:042:1,2017-11-03T01:30:00Z,27.8888,-97.5696,0.0,12.8,1111122 
TCOON,ioos:station:TCOON:042:1,2017-11-03T02:30:00Z,27.8888,-97.5696,0.0,12.7,1111122 
TCOON,ioos:station:TCOON:042:1,2017-11-03T03:30:00Z,27.8888,-97.5696,0.0,12.3,1111122 
TCOON,ioos:station:TCOON:042:1,2017-11-03T04:30:00Z,27.8888,-97.5696,0.0,10.2,1111122 
TCOON,ioos:station:TCOON:042:1,2017-11-03T05:30:00Z,27.8888,-97.5696,0.0,11.2,1111122 
TCOON,ioos:station:TCOON:042:1,2017-11-03T06:30:00Z,27.8888,-97.5696,0.0,10.4,1111122 
TCOON,ioos:station:TCOON:042:1,2017-11-03T07:30:00Z,27.8888,-97.5696,0.0,12.7,1111122 
TCOON,ioos:station:TCOON:042:1,2017-11-03T08:30:00Z,27.8888,-97.5696,0.0,12.8,1111122 
TCOON,ioos:station:TCOON:042:1,2017-11-03T09:30:00Z,27.8888,-97.5696,0.0,12.8,1111122 
TCOON,ioos:station:TCOON:042:1,2017-11-03T10:30:00Z,27.8888,-97.5696,0.0,12.8,1111122 
TCOON,ioos:station:TCOON:042:1,2017-11-03T11:30:00Z,27.8888,-97.5696,0.0,12.7,1111122 
TCOON,ioos:station:TCOON:042:1,2017-11-03T12:30:00Z,27.8888,-97.5696,0.0,11.2,1111122 
TCOON,ioos:station:TCOON:042:1,2017-11-03T13:30:00Z,27.8888,-97.5696,0.0,11.2,1111122 
TCOON,ioos:station:TCOON:042:1,2017-11-03T14:30:00Z,27.8888,-97.5696,0.0,11.4,1111122 
TCOON,ioos:station:TCOON:042:1,2017-11-03T15:30:00Z,27.8888,-97.5696,0.0,11.5,1111122 
TCOON,ioos:station:TCOON:042:1,2017-11-03T16:30:00Z,27.8888,-97.5696,0.0,11.4,1111122 
TCOON,ioos:station:TCOON:042:1,2017-11-03T17:30:00Z,27.8888,-97.5696,0.0,9.9,1111122 
TCOON,ioos:station:TCOON:042:1,2017-11-03T18:30:00Z,27.8888,-97.5696,0.0,11.5,1111122 
TCOON,ioos:station:TCOON:042:1,2017-11-03T19:30:00Z,27.8888,-97.5696,0.0,11.4,1111122 
TCOON,ioos:station:TCOON:042:1,2017-11-03T20:30:00Z,27.8888,-97.5696,0.0,11.5,1111122 
TCOON,ioos:station:TCOON:042:1,2017-11-03T21:30:00Z,27.8888,-97.5696,0.0,12.7,1111122 
TCOON,ioos:station:TCOON:042:1,2017-11-03T22:30:00Z,27.8888,-97.5696,0.0,11.7,1111122 
TCOON,ioos:station:TCOON:042:1,2017-11-03T23:30:00Z,27.8888,-97.5696,0.0,13.0,1111122 
TCOON,ioos:station:TCOON:042:1,2017-11-04T00:30:00Z,27.8888,-97.5696,0.0,13.0,1111122 
TCOON,ioos:station:TCOON:042:1,2017-11-04T01:30:00Z,27.8888,-97.5696,0.0,13.1,1111122 
TCOON,ioos:station:TCOON:042:1,2017-11-04T02:30:00Z,27.8888,-97.5696,0.0,13.1,1111122 
TCOON,ioos:station:TCOON:042:1,2017-11-04T03:30:00Z,27.8888,-97.5696,0.0,13.3,1111122 
TCOON,ioos:station:TCOON:042:1,2017-11-04T04:30:00Z,27.8888,-97.5696,0.0,13.1,1111122 
TCOON,ioos:station:TCOON:042:1,2017-11-04T05:30:00Z,27.8888,-97.5696,0.0,13.2,1111122 
TCOON,ioos:station:TCOON:042:1,2017-11-04T06:30:00Z,27.8888,-97.5696,0.0,13.3,1111122 
TCOON,ioos:station:TCOON:042:1,2017-11-04T07:30:00Z,27.8888,-97.5696,0.0,13.1,1111122 
TCOON,ioos:station:TCOON:042:1,2017-11-04T08:30:00Z,27.8888,-97.5696,0.0,13.0,1111122 
TCOON,ioos:station:TCOON:042:1,2017-11-04T09:30:00Z,27.8888,-97.5696,0.0,12.8,1111122 
TCOON,ioos:station:TCOON:042:1,2017-11-04T10:30:00Z,27.8888,-97.5696,0.0,12.8,1111122 
TCOON,ioos:station:TCOON:042:1,2017-11-04T11:30:00Z,27.8888,-97.5696,0.0,13.2,1111122 
TCOON,ioos:station:TCOON:042:1,2017-11-04T12:30:00Z,27.8888,-97.5696,0.0,13.3,1111122 
TCOON,ioos:station:TCOON:042:1,2017-11-04T13:30:00Z,27.8888,-97.5696,0.0,13.2,1111122 
TCOON,ioos:station:TCOON:042:1,2017-11-04T14:30:00Z,27.8888,-97.5696,0.0,11.6,1111122 
TCOON,ioos:station:TCOON:042:1,2017-11-04T15:30:00Z,27.8888,-97.5696,0.0,12.4,1111122 
TCOON,ioos:station:TCOON:042:1,2017-11-04T16:30:00Z,27.8888,-97.5696,0.0,12.4,1111122 
TCOON,ioos:station:TCOON:042:1,2017-11-04T17:30:00Z,27.8888,-97.5696,0.0,12.4,1111122 
TCOON,ioos:station:TCOON:042:1,2017-11-04T18:30:00Z,27.8888,-97.5696,0.0,12.0,1111122 
TCOON,ioos:station:TCOON:042:1,2017-11-04T19:30:00Z,27.8888,-97.5696,0.0,11.8,1111122 
TCOON,ioos:station:TCOON:042:1,2017-11-04T20:30:00Z,27.8888,-97.5696,0.0,11.9,1111122 
TCOON,ioos:station:TCOON:042:1,2017-11-04T21:30:00Z,27.8888,-97.5696,0.0,12.5,1111122 
TCOON,ioos:station:TCOON:042:1,2017-11-04T22:30:00Z,27.8888,-97.5696,0.0,13.0,1111122 
TCOON,ioos:station:TCOON:042:1,2017-11-04T23:30:00Z,27.8888,-97.5696,0.0,13.1,1111122 
TCOON,ioos:station:TCOON:042:1,2017-11-05T00:30:00Z,27.8888,-97.5696,0.0,13.0,1111122 
TCOON,ioos:station:TCOON:042:1,2017-11-05T01:30:00Z,27.8888,-97.5696,0.0,13.1,1111122 
TCOON,ioos:station:TCOON:042:1,2017-11-05T02:30:00Z,27.8888,-97.5696,0.0,13.8,1111122 
TCOON,ioos:station:TCOON:042:1,2017-11-05T03:30:00Z,27.8888,-97.5696,0.0,14.0,1111122 
TCOON,ioos:station:TCOON:042:1,2017-11-05T04:30:00Z,27.8888,-97.5696,0.0,13.5,1111122 
TCOON,ioos:station:TCOON:042:1,2017-11-05T05:30:00Z,27.8888,-97.5696,0.0,13.6,1111122 
TCOON,ioos:station:TCOON:042:1,2017-11-05T06:30:00Z,27.8888,-97.5696,0.0,13.7,1111122 
TCOON,ioos:station:TCOON:042:1,2017-11-05T07:30:00Z,27.8888,-97.5696,0.0,13.8,1111122 
TCOON,ioos:station:TCOON:042:1,2017-11-05T08:30:00Z,27.8888,-97.5696,0.0,13.8,1111122 
TCOON,ioos:station:TCOON:042:1,2017-11-05T09:30:00Z,27.8888,-97.5696,0.0,13.8,1111122 
TCOON,ioos:station:TCOON:042:1,2017-11-05T10:30:00Z,27.8888,-97.5696,0.0,13.7,1111122 
TCOON,ioos:station:TCOON:042:1,2017-11-05T11:30:00Z,27.8888,-97.5696,0.0,13.6,1111122 
TCOON,ioos:station:TCOON:042:1,2017-11-05T12:30:00Z,27.8888,-97.5696,0.0,13.4,1111122 
TCOON,ioos:station:TCOON:042:1,2017-11-05T13:30:00Z,27.8888,-97.5696,0.0,13.4,1111122 
TCOON,ioos:station:TCOON:042:1,2017-11-05T14:30:00Z,27.8888,-97.5696,0.0,13.3,1111122 
TCOON,ioos:station:TCOON:042:1,2017-11-05T15:30:00Z,27.8888,-97.5696,0.0,13.6,1111122 
TCOON,ioos:station:TCOON:042:1,2017-11-05T16:30:00Z,27.8888,-97.5696,0.0,13.7,1111122 
TCOON,ioos:station:TCOON:042:1,2017-11-05T17:30:00Z,27.8888,-97.5696,0.0,13.8,1111122 
TCOON,ioos:station:TCOON:042:1,2017-11-05T18:30:00Z,27.8888,-97.5696,0.0,13.8,1111122 
TCOON,ioos:station:TCOON:042:1,2017-11-05T19:30:00Z,27.8888,-97.5696,0.0,13.8,1111122 
TCOON,ioos:station:TCOON:042:1,2017-11-05T20:30:00Z,27.8888,-97.5696,0.0,13.7,1111122 
TCOON,ioos:station:TCOON:042:1,2017-11-05T21:30:00Z,27.8888,-97.5696,0.0,13.8,1111122 
TCOON,ioos:station:TCOON:042:1,2017-11-05T22:30:00Z,27.8888,-97.5696,0.0,14.0,1111122 
TCOON,ioos:station:TCOON:042:1,2017-11-05T23:30:00Z,27.8888,-97.5696,0.0,14.0,1111122 
TCOON,ioos:station:TCOON:042:1,2017-11-06T00:30:00Z,27.8888,-97.5696,0.0,13.9,1111122 
TCOON,ioos:station:TCOON:042:1,2017-11-06T01:30:00Z,27.8888,-97.5696,0.0,13.9,1111122 
TCOON,ioos:station:TCOON:042:1,2017-11-06T02:30:00Z,27.8888,-97.5696,0.0,13.6,1111122 
TCOON,ioos:station:TCOON:042:1,2017-11-06T03:30:00Z,27.8888,-97.5696,0.0,13.9,1111122 
TCOON,ioos:station:TCOON:042:1,2017-11-06T04:30:00Z,27.8888,-97.5696,0.0,13.9,1111122 
TCOON,ioos:station:TCOON:042:1,2017-11-06T05:30:00Z,27.8888,-97.5696,0.0,13.9,1111122 
TCOON,ioos:station:TCOON:042:1,2017-11-06T06:30:00Z,27.8888,-97.5696,0.0,13.9,1111122 
TCOON,ioos:station:TCOON:042:1,2017-11-06T07:30:00Z,27.8888,-97.5696,0.0,13.7,1111122 
TCOON,ioos:station:TCOON:042:1,2017-11-06T08:30:00Z,27.8888,-97.5696,0.0,13.7,1111122 
TCOON,ioos:station:TCOON:042:1,2017-11-06T09:30:00Z,27.8888,-97.5696,0.0,13.9,1111122 
TCOON,ioos:station:TCOON:042:1,2017-11-06T10:30:00Z,27.8888,-97.5696,0.0,13.9,1111122 
TCOON,ioos:station:TCOON:042:1,2017-11-06T11:30:00Z,27.8888,-97.5696,0.0,13.9,1111122 
TCOON,ioos:station:TCOON:042:1,2017-11-06T12:30:00Z,27.8888,-97.5696,0.0,13.9,1111122 
TCOON,ioos:station:TCOON:042:1,2017-11-06T13:30:00Z,27.8888,-97.5696,0.0,14.0,1111122 
TCOON,ioos:station:TCOON:042:1,2017-11-06T14:30:00Z,27.8888,-97.5696,0.0,14.0,1111122 
TCOON,ioos:station:TCOON:042:1,2017-11-06T15:30:00Z,27.8888,-97.5696,0.0,14.0,1111122 
TCOON,ioos:station:TCOON:042:1,2017-11-06T16:30:00Z,27.8888,-97.5696,0.0,13.9,1111122 
TCOON,ioos:station:TCOON:042:1,2017-11-06T17:30:00Z,27.8888,-97.5696,0.0,13.9,1111122 
TCOON,ioos:station:TCOON:042:1,2017-11-06T18:30:00Z,27.8888,-97.5696,0.0,13.9,1111122 
TCOON,ioos:station:TCOON:042:1,2017-11-06T19:30:00Z,27.8888,-97.5696,0.0,13.9,1111122 
TCOON,ioos:station:TCOON:042:1,2017-11-06T20:30:00Z,27.8888,-97.5696,0.0,14.0,1111122 
TCOON,ioos:station:TCOON:042:1,2017-11-06T21:30:00Z,27.8888,-97.5696,0.0,14.2,1111122 
TCOON,ioos:station:TCOON:042:1,2017-11-06T22:30:00Z,27.8888,-97.5696,0.0,15.0,1111122 
TCOON,ioos:station:TCOON:042:1,2017-11-06T23:30:00Z,27.8888,-97.5696,0.0,15.1,1111122 
TCOON,ioos:station:TCOON:042:1,2017-11-07T00:30:00Z,27.8888,-97.5696,0.0,14.8,1111122 
TCOON,ioos:station:TCOON:042:1,2017-11-07T01:30:00Z,27.8888,-97.5696,0.0,14.8,1111122 
TCOON,ioos:station:TCOON:042:1,2017-11-07T02:30:00Z,27.8888,-97.5696,0.0,15.0,1111122 
TCOON,ioos:station:TCOON:042:1,2017-11-07T03:30:00Z,27.8888,-97.5696,0.0,14.9,1111122 
TCOON,ioos:station:TCOON:042:1,2017-11-07T04:30:00Z,27.8888,-97.5696,0.0,15.2,1111122 
TCOON,ioos:station:TCOON:042:1,2017-11-07T05:30:00Z,27.8888,-97.5696,0.0,15.2,1111122 
TCOON,ioos:station:TCOON:042:1,2017-11-07T06:30:00Z,27.8888,-97.5696,0.0,15.1,1111122 
TCOON,ioos:station:TCOON:042:1,2017-11-07T07:30:00Z,27.8888,-97.5696,0.0,14.9,1111122 
TCOON,ioos:station:TCOON:042:1,2017-11-07T08:30:00Z,27.8888,-97.5696,0.0,14.8,1111122 
TCOON,ioos:station:TCOON:042:1,2017-11-07T09:30:00Z,27.8888,-97.5696,0.0,14.8,1111122 
TCOON,ioos:station:TCOON:042:1,2017-11-07T10:30:00Z,27.8888,-97.5696,0.0,14.7,1111122 
TCOON,ioos:station:TCOON:042:1,2017-11-07T11:30:00Z,27.8888,-97.5696,0.0,14.7,1111122 
TCOON,ioos:station:TCOON:042:1,2017-11-07T12:30:00Z,27.8888,-97.5696,0.0,14.8,1111122 
TCOON,ioos:station:TCOON:042:1,2017-11-07T13:30:00Z,27.8888,-97.5696,0.0,15.2,1111122 
TCOON,ioos:station:TCOON:042:1,2017-11-07T14:30:00Z,27.8888,-97.5696,0.0,14.6,1111122 
TCOON,ioos:station:TCOON:042:1,2017-11-07T16:30:00Z,27.8888,-97.5696,0.0,13.9,1111122 
TCOON,ioos:station:TCOON:042:1,2017-11-07T17:30:00Z,27.8888,-97.5696,0.0,14.0,1111122 
TCOON,ioos:station:TCOON:042:1,2017-11-07T19:00:00Z,27.8888,-97.5696,0.0,14.0,1111122 
TCOON,ioos:station:TCOON:042:1,2017-11-07T19:30:00Z,27.8888,-97.5696,0.0,13.8,1111122 
TCOON,ioos:station:TCOON:042:1,2017-11-07T20:30:00Z,27.8888,-97.5696,0.0,14.8,1111122 
TCOON,ioos:station:TCOON:042:1,2017-11-07T21:30:00Z,27.8888,-97.5696,0.0,12.0,1111122 
TCOON,ioos:station:TCOON:042:1,2017-11-07T23:30:00Z,27.8888,-97.5696,0.0,15.0,1111122 
TCOON,ioos:station:TCOON:042:1,2017-11-08T00:30:00Z,27.8888,-97.5696,0.0,15.0,1111122 
TCOON,ioos:station:TCOON:042:1,2017-11-08T01:30:00Z,27.8888,-97.5696,0.0,15.0,1111122 
TCOON,ioos:station:TCOON:042:1,2017-11-08T02:30:00Z,27.8888,-97.5696,0.0,14.9,1111122 
TCOON,ioos:station:TCOON:042:1,2017-11-08T04:30:00Z,27.8888,-97.5696,0.0,14.9,1111122 
TCOON,ioos:station:TCOON:042:1,2017-11-08T05:30:00Z,27.8888,-97.5696,0.0,14.8,1111122 
TCOON,ioos:station:TCOON:042:1,2017-11-08T06:30:00Z,27.8888,-97.5696,0.0,14.4,1111122 
TCOON,ioos:station:TCOON:042:1,2017-11-08T07:30:00Z,27.8888,-97.5696,0.0,15.0,1111122 
TCOON,ioos:station:TCOON:042:1,2017-11-08T08:30:00Z,27.8888,-97.5696,0.0,15.7,1111122 
TCOON,ioos:station:TCOON:042:1,2017-11-08T09:30:00Z,27.8888,-97.5696,0.0,15.6,1111122 
TCOON,ioos:station:TCOON:042:1,2017-11-08T10:30:00Z,27.8888,-97.5696,0.0,15.6,1111122 
TCOON,ioos:station:TCOON:042:1,2017-11-08T11:30:00Z,27.8888,-97.5696,0.0,15.6,1111122 
TCOON,ioos:station:TCOON:042:1,2017-11-08T12:30:00Z,27.8888,-97.5696,0.0,15.7,1111122 
TCOON,ioos:station:TCOON:042:1,2017-11-08T13:30:00Z,27.8888,-97.5696,0.0,15.6,1111122 
TCOON,ioos:station:TCOON:042:1,2017-11-08T14:30:00Z,27.8888,-97.5696,0.0,15.6,1111122 
TCOON,ioos:station:TCOON:042:1,2017-11-08T15:30:00Z,27.8888,-97.5696,0.0,15.9,1111122 
TCOON,ioos:station:TCOON:042:1,2017-11-08T16:30:00Z,27.8888,-97.5696,0.0,15.8,1111122 
TCOON,ioos:station:TCOON:042:1,2017-11-08T17:30:00Z,27.8888,-97.5696,0.0,15.7,1111122 
TCOON,ioos:station:TCOON:042:1,2017-11-08T18:30:00Z,27.8888,-97.5696,0.0,15.4,1111122 
TCOON,ioos:station:TCOON:042:1,2017-11-08T19:30:00Z,27.8888,-97.5696,0.0,13.9,1111122 
TCOON,ioos:station:TCOON:042:1,2017-11-08T20:30:00Z,27.8888,-97.5696,0.0,13.9,1111122 
TCOON,ioos:station:TCOON:042:1,2017-11-08T21:30:00Z,27.8888,-97.5696,0.0,14.1,1111122 
TCOON,ioos:station:TCOON:042:1,2017-11-08T22:30:00Z,27.8888,-97.5696,0.0,14.8,1111122 
TCOON,ioos:station:TCOON:042:1,2017-11-08T23:30:00Z,27.8888,-97.5696,0.0,14.9,1111122 
TCOON,ioos:station:TCOON:042:1,2017-11-09T00:30:00Z,27.8888,-97.5696,0.0,15.3,1111122 
TCOON,ioos:station:TCOON:042:1,2017-11-09T01:30:00Z,27.8888,-97.5696,0.0,14.4,1111122 
TCOON,ioos:station:TCOON:042:1,2017-11-09T02:30:00Z,27.8888,-97.5696,0.0,11.1,1111122 
TCOON,ioos:station:TCOON:042:1,2017-11-09T03:30:00Z,27.8888,-97.5696,0.0,8.0,1111122 
TCOON,ioos:station:TCOON:042:1,2017-11-09T04:30:00Z,27.8888,-97.5696,0.0,15.0,1111122 
TCOON,ioos:station:TCOON:042:1,2017-11-09T05:30:00Z,27.8888,-97.5696,0.0,15.4,1111122 
TCOON,ioos:station:TCOON:042:1,2017-11-09T06:30:00Z,27.8888,-97.5696,0.0,15.0,1111122 
TCOON,ioos:station:TCOON:042:1,2017-11-09T07:30:00Z,27.8888,-97.5696,0.0,9.5,1111122 
TCOON,ioos:station:TCOON:042:1,2017-11-09T08:30:00Z,27.8888,-97.5696,0.0,14.9,1111122 
TCOON,ioos:station:TCOON:042:1,2017-11-09T09:30:00Z,27.8888,-97.5696,0.0,13.3,1111122 
TCOON,ioos:station:TCOON:042:1,2017-11-09T10:30:00Z,27.8888,-97.5696,0.0,13.9,1111122 
TCOON,ioos:station:TCOON:042:1,2017-11-09T11:30:00Z,27.8888,-97.5696,0.0,13.9,1111122 
TCOON,ioos:station:TCOON:042:1,2017-11-09T12:30:00Z,27.8888,-97.5696,0.0,11.3,1111122 
TCOON,ioos:station:TCOON:042:1,2017-11-09T13:30:00Z,27.8888,-97.5696,0.0,14.9,1111122 
TCOON,ioos:station:TCOON:042:1,2017-11-09T14:30:00Z,27.8888,-97.5696,0.0,14.6,1111122 
TCOON,ioos:station:TCOON:042:1,2017-11-09T15:30:00Z,27.8888,-97.5696,0.0,14.8,1111122 
TCOON,ioos:station:TCOON:042:1,2017-11-09T16:30:00Z,27.8888,-97.5696,0.0,14.9,1111122 
TCOON,ioos:station:TCOON:042:1,2017-11-09T17:30:00Z,27.8888,-97.5696,0.0,15.0,1111122 
TCOON,ioos:station:TCOON:042:1,2017-11-09T18:30:00Z,27.8888,-97.5696,0.0,15.1,1111122 
TCOON,ioos:station:TCOON:042:1,2017-11-09T19:30:00Z,27.8888,-97.5696,0.0,15.1,1111122 
TCOON,ioos:station:TCOON:042:1,2017-11-09T20:30:00Z,27.8888,-97.5696,0.0,15.0,1111122 
TCOON,ioos:station:TCOON:042:1,2017-11-09T21:30:00Z,27.8888,-97.5696,0.0,14.9,1111122 
TCOON,ioos:station:TCOON:042:1,2017-11-09T22:30:00Z,27.8888,-97.5696,0.0,14.8,1111122 
TCOON,ioos:station:TCOON:042:1,2017-11-09T23:30:00Z,27.8888,-97.5696,0.0,14.4,1111122 
TCOON,ioos:station:TCOON:042:1,2017-11-10T00:30:00Z,27.8888,-97.5696,0.0,14.4,1111122 
TCOON,ioos:station:TCOON:042:1,2017-11-10T01:30:00Z,27.8888,-97.5696,0.0,13.9,1111122 
TCOON,ioos:station:TCOON:042:1,2017-11-10T02:30:00Z,27.8888,-97.5696,0.0,14.2,1111122 
TCOON,ioos:station:TCOON:042:1,2017-11-10T03:30:00Z,27.8888,-97.5696,0.0,14.4,1111122 
TCOON,ioos:station:TCOON:042:1,2017-11-10T04:30:00Z,27.8888,-97.5696,0.0,14.5,1111122 
TCOON,ioos:station:TCOON:042:1,2017-11-10T05:30:00Z,27.8888,-97.5696,0.0,14.5,1111122 
TCOON,ioos:station:TCOON:042:1,2017-11-10T06:30:00Z,27.8888,-97.5696,0.0,14.8,1111122 
TCOON,ioos:station:TCOON:042:1,2017-11-10T07:30:00Z,27.8888,-97.5696,0.0,14.6,1111122 
TCOON,ioos:station:TCOON:042:1,2017-11-10T08:30:00Z,27.8888,-97.5696,0.0,14.6,1111122 
TCOON,ioos:station:TCOON:042:1,2017-11-10T09:30:00Z,27.8888,-97.5696,0.0,14.7,1111122 
TCOON,ioos:station:TCOON:042:1,2017-11-10T10:30:00Z,27.8888,-97.5696,0.0,14.7,1111122 
TCOON,ioos:station:TCOON:042:1,2017-11-10T11:30:00Z,27.8888,-97.5696,0.0,8.2,1111122 
TCOON,ioos:station:TCOON:042:1,2017-11-10T12:30:00Z,27.8888,-97.5696,0.0,12.0,1111122 
TCOON,ioos:station:TCOON:042:1,2017-11-10T13:30:00Z,27.8888,-97.5696,0.0,14.9,1111122 
TCOON,ioos:station:TCOON:042:1,2017-11-10T14:30:00Z,27.8888,-97.5696,0.0,15.1,1111122 
TCOON,ioos:station:TCOON:042:1,2017-11-10T15:30:00Z,27.8888,-97.5696,0.0,15.0,1111122 
TCOON,ioos:station:TCOON:042:1,2017-11-10T16:30:00Z,27.8888,-97.5696,0.0,15.3,1111122 
TCOON,ioos:station:TCOON:042:1,2017-11-10T17:30:00Z,27.8888,-97.5696,0.0,13.8,1111122 
TCOON,ioos:station:TCOON:042:1,2017-11-10T18:30:00Z,27.8888,-97.5696,0.0,14.8,1111122 
TCOON,ioos:station:TCOON:042:1,2017-11-10T19:30:00Z,27.8888,-97.5696,0.0,15.3,1111122 
TCOON,ioos:station:TCOON:042:1,2017-11-10T20:30:00Z,27.8888,-97.5696,0.0,15.5,1111122 
TCOON,ioos:station:TCOON:042:1,2017-11-10T21:30:00Z,27.8888,-97.5696,0.0,15.8,1111122 
TCOON,ioos:station:TCOON:042:1,2017-11-10T22:30:00Z,27.8888,-97.5696,0.0,13.4,1111122 
TCOON,ioos:station:TCOON:042:1,2017-11-10T23:30:00Z,27.8888,-97.5696,0.0,7.3,1111122 
TCOON,ioos:station:TCOON:042:1,2017-11-11T00:30:00Z,27.8888,-97.5696,0.0,8.4,1111122 
TCOON,ioos:station:TCOON:042:1,2017-11-11T01:30:00Z,27.8888,-97.5696,0.0,7.7,1111122 
TCOON,ioos:station:TCOON:042:1,2017-11-11T02:30:00Z,27.8888,-97.5696,0.0,12.5,1111122 
TCOON,ioos:station:TCOON:042:1,2017-11-11T03:30:00Z,27.8888,-97.5696,0.0,10.7,1111122 
TCOON,ioos:station:TCOON:042:1,2017-11-11T04:30:00Z,27.8888,-97.5696,0.0,15.7,1111122 
TCOON,ioos:station:TCOON:042:1,2017-11-11T05:30:00Z,27.8888,-97.5696,0.0,14.8,1111122 
TCOON,ioos:station:TCOON:042:1,2017-11-11T06:30:00Z,27.8888,-97.5696,0.0,15.0,1111122 
TCOON,ioos:station:TCOON:042:1,2017-11-11T07:30:00Z,27.8888,-97.5696,0.0,10.2,1111122 
TCOON,ioos:station:TCOON:042:1,2017-11-11T08:30:00Z,27.8888,-97.5696,0.0,16.3,1111122 
TCOON,ioos:station:TCOON:042:1,2017-11-11T09:30:00Z,27.8888,-97.5696,0.0,16.9,1111122 
TCOON,ioos:station:TCOON:042:1,2017-11-11T10:30:00Z,27.8888,-97.5696,0.0,9.0,1111122 
TCOON,ioos:station:TCOON:042:1,2017-11-11T11:30:00Z,27.8888,-97.5696,0.0,7.4,1111122 
TCOON,ioos:station:TCOON:042:1,2017-11-11T12:30:00Z,27.8888,-97.5696,0.0,8.6,1111122 
TCOON,ioos:station:TCOON:042:1,2017-11-11T13:30:00Z,27.8888,-97.5696,0.0,17.0,1111122 
TCOON,ioos:station:TCOON:042:1,2017-11-11T14:30:00Z,27.8888,-97.5696,0.0,16.8,1111122 
TCOON,ioos:station:TCOON:042:1,2017-11-11T15:30:00Z,27.8888,-97.5696,0.0,16.4,1111122 
TCOON,ioos:station:TCOON:042:1,2017-11-11T16:30:00Z,27.8888,-97.5696,0.0,16.6,1111122 
TCOON,ioos:station:TCOON:042:1,2017-11-11T17:30:00Z,27.8888,-97.5696,0.0,17.2,1111122 
TCOON,ioos:station:TCOON:042:1,2017-11-11T18:30:00Z,27.8888,-97.5696,0.0,16.9,1111122 
TCOON,ioos:station:TCOON:042:1,2017-11-11T19:30:00Z,27.8888,-97.5696,0.0,16.9,1111122 
TCOON,ioos:station:TCOON:042:1,2017-11-11T20:30:00Z,27.8888,-97.5696,0.0,17.1,1111122 
TCOON,ioos:station:TCOON:042:1,2017-11-11T21:30:00Z,27.8888,-97.5696,0.0,15.0,1111122 
TCOON,ioos:station:TCOON:042:1,2017-11-11T22:30:00Z,27.8888,-97.5696,0.0,18.2,1111122 
TCOON,ioos:station:TCOON:042:1,2017-11-11T23:30:00Z,27.8888,-97.5696,0.0,18.9,1111122 
TCOON,ioos:station:TCOON:042:1,2017-11-12T00:30:00Z,27.8888,-97.5696,0.0,19.0,1111122 
TCOON,ioos:station:TCOON:042:1,2017-11-12T01:30:00Z,27.8888,-97.5696,0.0,18.8,1111122 
TCOON,ioos:station:TCOON:042:1,2017-11-12T02:30:00Z,27.8888,-97.5696,0.0,18.8,1111122 
TCOON,ioos:station:TCOON:042:1,2017-11-12T03:30:00Z,27.8888,-97.5696,0.0,18.9,1111122 
TCOON,ioos:station:TCOON:042:1,2017-11-12T04:30:00Z,27.8888,-97.5696,0.0,18.9,1111122 
TCOON,ioos:station:TCOON:042:1,2017-11-12T05:30:00Z,27.8888,-97.5696,0.0,18.8,1111122 
TCOON,ioos:station:TCOON:042:1,2017-11-12T06:30:00Z,27.8888,-97.5696,0.0,19.0,1111122 
TCOON,ioos:station:TCOON:042:1,2017-11-12T07:30:00Z,27.8888,-97.5696,0.0,19.0,1111122 
TCOON,ioos:station:TCOON:042:1,2017-11-12T08:30:00Z,27.8888,-97.5696,0.0,18.5,1111122 
TCOON,ioos:station:TCOON:042:1,2017-11-12T09:30:00Z,27.8888,-97.5696,0.0,18.4,1111122 
TCOON,ioos:station:TCOON:042:1,2017-11-12T10:30:00Z,27.8888,-97.5696,0.0,18.2,1111122 
TCOON,ioos:station:TCOON:042:1,2017-11-12T11:30:00Z,27.8888,-97.5696,0.0,18.1,1111122 
TCOON,ioos:station:TCOON:042:1,2017-11-12T12:30:00Z,27.8888,-97.5696,0.0,16.6,1111122 
TCOON,ioos:station:TCOON:042:1,2017-11-12T13:30:00Z,27.8888,-97.5696,0.0,17.5,1111122 